IPG1010 KSEE-KSAN

Flight info

Callsign IPG1010
Flight time N/A
Altitude 5000
Route DCT VYDDA DCT
Aircraft C172/L-SFG/C

Departure

Time 2026-05-05 06:57
Airport Gillespie Field (KSEE)

Arrival

Time N/A
Airport San Diego International Airport (KSAN)
Time Latitude Longitude Altitude Speed Heading
2026-05-05 06:55 32.82555 -116.96443 388 ft 0 kts 10°
2026-05-05 06:55 32.82556 -116.96442 388 ft 2 kts 10°
2026-05-05 06:55 32.82589 -116.96439 388 ft 10 kts 342°
2026-05-05 06:56 32.82618 -116.96457 388 ft 6 kts 327°
2026-05-05 06:56 32.82663 -116.96565 386 ft 25 kts 282°
2026-05-05 06:56 32.82709 -116.96816 377 ft 51 kts 282°
2026-05-05 06:56 32.82794 -116.97391 484 ft 77 kts 277°
2026-05-05 06:57 32.82862 -116.97831 635 ft 81 kts 278°
2026-05-05 06:57 32.82947 -116.98506 881 ft 85 kts 279°
2026-05-05 06:57 32.82946 -116.99148 1184 ft 78 kts 241°
2026-05-05 06:57 32.82456 -116.99306 1341 ft 89 kts 152°
2026-05-05 06:58 32.82110 -116.98609 1403 ft 97 kts 116°
2026-05-05 06:58 32.81826 -116.97846 1345 ft 105 kts 125°
2026-05-05 06:58 32.81482 -116.97080 1396 ft 102 kts 130°
2026-05-05 06:58 32.80986 -116.96523 1475 ft 99 kts 163°
2026-05-05 06:59 32.80330 -116.96242 1544 ft 101 kts 172°
2026-05-05 06:59 32.79655 -116.96020 1629 ft 101 kts 176°
2026-05-05 06:59 32.78956 -116.95870 1690 ft 103 kts 175°
2026-05-05 06:59 32.78253 -116.95720 1764 ft 102 kts 177°
2026-05-05 07:00 32.77531 -116.95555 1736 ft 108 kts 178°
2026-05-05 07:00 32.76797 -116.95421 1803 ft 105 kts 177°
2026-05-05 07:00 32.76088 -116.95237 1897 ft 105 kts 176°
2026-05-05 07:00 32.75369 -116.95046 1941 ft 107 kts 175°
2026-05-05 07:01 32.74632 -116.94869 1932 ft 109 kts 187°
2026-05-05 07:01 32.73916 -116.95076 1950 ft 106 kts 205°
2026-05-05 07:01 32.73225 -116.95397 1933 ft 107 kts 210°
2026-05-05 07:01 32.72568 -116.95802 1948 ft 107 kts 213°
2026-05-05 07:02 32.71932 -116.96245 1990 ft 105 kts 213°
2026-05-05 07:02 32.71290 -116.96660 2020 ft 105 kts 212°
2026-05-05 07:02 32.70659 -116.97042 2131 ft 101 kts 211°
2026-05-05 07:02 32.70033 -116.97457 2145 ft 106 kts 216°
2026-05-05 07:03 32.69418 -116.97938 2169 ft 106 kts 219°
2026-05-05 07:03 32.68953 -116.98600 2145 ft 108 kts 246°
2026-05-05 07:03 32.68801 -116.99479 2096 ft 112 kts 268°
2026-05-05 07:03 32.68910 -117.00397 2097 ft 112 kts 284°
2026-05-05 07:04 32.69195 -117.01261 2050 ft 114 kts 291°
2026-05-05 07:04 32.69467 -117.02140 2017 ft 113 kts 285°
2026-05-05 07:04 32.69677 -117.03030 1983 ft 112 kts 286°
2026-05-05 07:04 32.69926 -117.03913 1940 ft 111 kts 286°
2026-05-05 07:05 32.70139 -117.04809 1924 ft 113 kts 282°
2026-05-05 07:05 32.70333 -117.05727 1928 ft 117 kts 282°
2026-05-05 07:05 32.70544 -117.06662 1921 ft 119 kts 282°
2026-05-05 07:05 32.70739 -117.07627 1852 ft 123 kts 280°
2026-05-05 07:06 32.70928 -117.08628 1802 ft 123 kts 281°
2026-05-05 07:06 32.71089 -117.09570 1934 ft 114 kts 278°
2026-05-05 07:06 32.71286 -117.10504 1909 ft 118 kts 283°
2026-05-05 07:06 32.71507 -117.11456 1832 ft 122 kts 284°
2026-05-05 07:07 32.71766 -117.12451 1640 ft 128 kts 282°
2026-05-05 07:07 32.72009 -117.13470 1413 ft 130 kts 283°
2026-05-05 07:07 32.72260 -117.14505 1090 ft 131 kts 285°
2026-05-05 07:07 32.72505 -117.15540 774 ft 130 kts 285°
2026-05-05 07:08 32.72752 -117.16525 505 ft 119 kts 285°
2026-05-05 07:08 32.72982 -117.17451 230 ft 115 kts 288°
2026-05-05 07:08 32.73203 -117.18331 31 ft 104 kts 285°
2026-05-05 07:08 32.73390 -117.19075 27 ft 93 kts 288°
2026-05-05 07:09 32.73551 -117.19824 178 ft 95 kts 286°
2026-05-05 07:09 32.73728 -117.20584 341 ft 96 kts 286°
2026-05-05 07:09 32.73936 -117.21324 532 ft 95 kts 289°